• In Hungary
  • List of Countries
  • For 7 days
  • Water Temperature
  • Satellite Maps
  • Weather Map
  • News
  • Weather Widgets
  • user-avatar
    Login

    Hourly Weather Pervoe Maya

    Today, 22 September, Saturday

    Time Temperature Precipitation Wind Pressure Humidity
    00:00 +17°C° 0 mm 2 mps 754 mmHg 76%
    01:00 +17°C° 0 mm 2 mps 754 mmHg 77%
    02:00 +17°C° 0 mm 2 mps 754 mmHg 79%
    03:00 +16°C° 0 mm 2 mps 754 mmHg 80%
    04:00 +16°C° 0 mm 2 mps 754 mmHg 81%
    05:00 +16°C° 0 mm 2 mps 754 mmHg 82%
    06:00 +14°C° 0 mm 3 mps 754 mmHg 83%
    07:00 +17°C° 0 mm 3 mps 754 mmHg 78%
    08:00 +18°C° 0 mm 3 mps 754 mmHg 72%
    09:00 +20°C° 0 mm 4 mps 754 mmHg 67%
    10:00 +21°C° 0 mm 4 mps 754 mmHg 62%
    11:00 +23°C° 0 mm 4 mps 753 mmHg 57%
    12:00 +25°C° 0 mm 4 mps 753 mmHg 52%
    13:00 +26°C° 0 mm 4 mps 753 mmHg 51%
    14:00 +26°C° 0 mm 4 mps 753 mmHg 49%
    15:00 +26°C° 0 mm 4 mps 752 mmHg 48%
    16:00 +25°C° 0 mm 4 mps 752 mmHg 53%
    17:00 +24°C° 0 mm 3 mps 752 mmHg 57%
    18:00 +21°C° 0 mm 3 mps 751 mmHg 62%
    19:00 +20°C° 0 mm 3 mps 751 mmHg 63%
    20:00 +20°C° 0 mm 3 mps 751 mmHg 65%
    21:00 +19°C° 0 mm 3 mps 751 mmHg 66%
    22:00 +18°C° 0 mm 4 mps 751 mmHg 66%
    23:00 +18°C° 0 mm 4 mps 751 mmHg 67%

    Tomorrow, 23 September, Sunday

    Time Temperature Precipitation Wind Pressure Humidity
    00:00 +18°C° 0 mm 4 mps 750 mmHg 68%
    01:00 +18°C° 0 mm 4 mps 750 mmHg 68%
    02:00 +17°C° 0 mm 4 mps 750 mmHg 68%
    03:00 +16°C° 0 mm 5 mps 749 mmHg 68%
    04:00 +16°C° 0 mm 5 mps 749 mmHg 69%
    05:00 +16°C° 0 mm 5 mps 748 mmHg 69%
    06:00 +15°C° 0 mm 5 mps 747 mmHg 69%
    07:00 +17°C° 0 mm 6 mps 747 mmHg 66%
    08:00 +19°C° 0 mm 6 mps 747 mmHg 63%
    09:00 +20°C° 0 mm 7 mps 746 mmHg 60%
    10:00 +21°C° 0 mm 7 mps 746 mmHg 55%
    11:00 +23°C° 0 mm 8 mps 746 mmHg 51%
    12:00 +24°C° 0 mm 8 mps 746 mmHg 47%
    13:00 +23°C° 0.1 mm 7 mps 745 mmHg 52%
    14:00 +21°C° 0.1 mm 7 mps 745 mmHg 57%
    15:00 +20°C° 0.1 mm 6 mps 745 mmHg 62%
    16:00 +17°C° 0.5 mm 6 mps 745 mmHg 68%
    17:00 +14°C° 0.5 mm 6 mps 746 mmHg 74%
    18:00 +11°C° 0.5 mm 6 mps 746 mmHg 80%
    19:00 +10°C° 0.4 mm 5 mps 746 mmHg 81%
    20:00 +10°C° 0.4 mm 5 mps 746 mmHg 82%
    21:00 +11°C° 0.4 mm 4 mps 747 mmHg 83%
    22:00 +11°C° 0.9 mm 4 mps 747 mmHg 85%
    23:00 +10°C° 0.9 mm 3 mps 747 mmHg 86%

    Day after tomorrow, 24 September, Monday

    Time Temperature Precipitation Wind Pressure Humidity
    00:00 +10°C° 0.9 mm 2 mps 747 mmHg 87%
    01:00 +10°C° 0.1 mm 3 mps 747 mmHg 88%
    02:00 +10°C° 0.1 mm 3 mps 747 mmHg 89%
    03:00 +10°C° 0.1 mm 3 mps 747 mmHg 90%
    04:00 +9°C° 0 mm 3 mps 747 mmHg 91%
    05:00 +9°C° 0 mm 3 mps 747 mmHg 93%
    06:00 +8°C° 0 mm 3 mps 748 mmHg 94%
    07:00 +10°C° 0 mm 2 mps 748 mmHg 88%
    08:00 +12°C° 0 mm 2 mps 748 mmHg 82%
    09:00 +13°C° 0 mm 2 mps 748 mmHg 76%
    10:00 +13°C° 0 mm 3 mps 748 mmHg 69%
    11:00 +14°C° 0 mm 3 mps 748 mmHg 62%
    12:00 +17°C° 0 mm 3 mps 748 mmHg 54%
    13:00 +17°C° 0 mm 4 mps 747 mmHg 52%
    14:00 +17°C° 0 mm 4 mps 747 mmHg 50%
    15:00 +17°C° 0 mm 4 mps 746 mmHg 47%
    16:00 +17°C° 0 mm 4 mps 746 mmHg 50%
    17:00 +15°C° 0 mm 4 mps 745 mmHg 53%
    18:00 +14°C° 0 mm 4 mps 744 mmHg 56%
    19:00 +14°C° 0.5 mm 5 mps 744 mmHg 61%
    20:00 +13°C° 0.5 mm 6 mps 743 mmHg 65%
    21:00 +12°C° 0.5 mm 8 mps 742 mmHg 69%
    22:00 +11°C° 1.5 mm 8 mps 741 mmHg 72%
    23:00 +11°C° 1.5 mm 9 mps 740 mmHg 75%

    25 September, Tuesday

    Time Temperature Precipitation Wind Pressure Humidity
    00:00 +11°C° 1.5 mm 10 mps 739 mmHg 79%
    01:00 +11°C° 0.2 mm 10 mps 738 mmHg 78%
    02:00 +11°C° 0.2 mm 9 mps 738 mmHg 78%
    03:00 +10°C° 0.2 mm 9 mps 737 mmHg 78%
    04:00 +10°C° 0 mm 8 mps 737 mmHg 78%
    05:00 +9°C° 0 mm 8 mps 737 mmHg 77%
    06:00 +7°C° 0 mm 8 mps 737 mmHg 77%
    07:00 +7°C° 0 mm 9 mps 736 mmHg 75%
    08:00 +8°C° 0 mm 9 mps 736 mmHg 72%
    09:00 +8°C° 0 mm 10 mps 736 mmHg 70%
    10:00 +8°C° 0 mm 10 mps 736 mmHg 69%
    11:00 +8°C° 0 mm 10 mps 736 mmHg 69%
    12:00 +8°C° 0 mm 11 mps 736 mmHg 68%
    13:00 +8°C° 0.1 mm 11 mps 736 mmHg 70%
    14:00 +8°C° 0.1 mm 10 mps 736 mmHg 71%
    15:00 +8°C° 0.1 mm 10 mps 736 mmHg 72%
    16:00 +7°C° 0.3 mm 10 mps 737 mmHg 74%
    17:00 +7°C° 0.3 mm 9 mps 737 mmHg 76%
    18:00 +7°C° 0.3 mm 9 mps 738 mmHg 77%
    19:00 +6°C° 0.2 mm 9 mps 739 mmHg 77%
    20:00 +6°C° 0.2 mm 9 mps 740 mmHg 77%
    21:00 +6°C° 0.2 mm 8 mps 741 mmHg 76%
    22:00 +6°C° 0 mm 8 mps 741 mmHg 75%
    23:00 +5°C° 0 mm 8 mps 742 mmHg 74%

    26 September, Wednesday

    Time Temperature Precipitation Wind Pressure Humidity
    00:00 +5°C° 0 mm 7 mps 743 mmHg 73%
    01:00 +5°C° 0 mm 7 mps 743 mmHg 73%
    02:00 +4°C° 0 mm 7 mps 744 mmHg 73%
    03:00 +4°C° 0 mm 7 mps 744 mmHg 73%
    04:00 +3°C° 0 mm 6 mps 745 mmHg 74%
    05:00 +3°C° 0 mm 6 mps 746 mmHg 75%
    06:00 +2°C° 0 mm 6 mps 746 mmHg 75%
    07:00 +3°C° 0 mm 6 mps 747 mmHg 71%
    08:00 +4°C° 0 mm 6 mps 747 mmHg 66%
    09:00 +4°C° 0 mm 7 mps 748 mmHg 62%
    10:00 +6°C° 0 mm 7 mps 748 mmHg 56%
    11:00 +8°C° 0 mm 7 mps 749 mmHg 51%
    12:00 +9°C° 0 mm 7 mps 749 mmHg 46%
    13:00 +9°C° 0 mm 7 mps 750 mmHg 48%
    14:00 +9°C° 0 mm 7 mps 750 mmHg 50%
    15:00 +10°C° 0 mm 7 mps 750 mmHg 53%
    16:00 +9°C° 0.1 mm 6 mps 751 mmHg 58%
    17:00 +8°C° 0.1 mm 6 mps 751 mmHg 64%
    18:00 +7°C° 0.1 mm 5 mps 752 mmHg 70%
    19:00 +7°C° 0 mm 4 mps 752 mmHg 73%
    20:00 +6°C° 0 mm 4 mps 753 mmHg 77%
    21:00 +7°C° 0 mm 3 mps 753 mmHg 80%
    22:00 +5°C° 0 mm 3 mps 753 mmHg 83%
    23:00 +5°C° 0 mm 3 mps 754 mmHg 86%

    27 September, Thursday

    Time Temperature Precipitation Wind Pressure Humidity
    00:00 +5°C° 0 mm 2 mps 754 mmHg 89%
    01:00 +5°C° 0 mm 2 mps 754 mmHg 89%
    02:00 +5°C° 0 mm 2 mps 755 mmHg 89%
    03:00 +5°C° 0 mm 2 mps 755 mmHg 89%
    04:00 +4°C° 0 mm 2 mps 755 mmHg 89%
    05:00 +4°C° 0 mm 2 mps 755 mmHg 89%
    06:00 +4°C° 0 mm 2 mps 755 mmHg 89%
    07:00 +4°C° 0 mm 3 mps 756 mmHg 82%
    08:00 +5°C° 0 mm 3 mps 756 mmHg 74%
    09:00 +7°C° 0 mm 3 mps 756 mmHg 66%
    10:00 +7°C° 0 mm 4 mps 756 mmHg 59%
    11:00 +8°C° 0 mm 4 mps 756 mmHg 51%
    12:00 +9°C° 0 mm 5 mps 756 mmHg 44%
    13:00 +9°C° 0 mm 5 mps 755 mmHg 43%
    14:00 +10°C° 0 mm 5 mps 755 mmHg 42%
    15:00 +10°C° 0 mm 6 mps 755 mmHg 41%
    16:00 +9°C° 0 mm 5 mps 754 mmHg 44%
    17:00 +9°C° 0 mm 5 mps 754 mmHg 47%
    18:00 +8°C° 0 mm 5 mps 753 mmHg 49%
    19:00 +8°C° 0 mm 5 mps 753 mmHg 49%
    20:00 +8°C° 0 mm 5 mps 753 mmHg 49%
    21:00 +8°C° 0 mm 6 mps 752 mmHg 48%
    22:00 +8°C° 0 mm 6 mps 752 mmHg 52%
    23:00 +8°C° 0 mm 6 mps 752 mmHg 56%
    Show more